Regional Weather Roundup
Issued by NWS

Home | Current Version | Previous Version | Graphics & Text | Print | Product List | Glossary On
Versions: 1 2 3 4 5 6 7 8 9 10 11 12 13 14 15 16 17 18 19 20 21 22 23 24 25 26 27 28 29 30 31 32 33 34 35 36 37 38 39 40 41 42 43 44 45 46 47 48 49 50
000
ASUS43 KOAX 112302
RWRNE

WEATHER ROUNDUP FOR NEBRASKA
NATIONAL WEATHER SERVICE OMAHA NE
500 PM CST MON DEC 11 2017

NOTES: SATELLITE DATA IS BEING USED TO AUGMENT CLOUD COVER ABOVE
       12000 FEET.
       "FAIR" INDICATES FEW OR NO CLOUDS BELOW 12,000 FEET WITH NO
       SIGNIFICANT WEATHER AND/OR OBSTRUCTIONS TO VISIBILITY.


NEZ001>004-019>022-054>056-120000-
NEBRASKA PANHANDLE

CITY           SKY/WX    TMP DP  RH WIND       PRES   REMARKS
SCOTTSBLUFF    PTCLDY    48  13  24 NW21G29   30.36R
ALLIANCE       CLOUDY    44  11  26 N22       30.33R
CHADRON        CLEAR     43  16  33 NW12      30.36R
GORDON         FAIR      38  25  58 N17       30.33R WCI  29
KIMBALL        CLEAR     47   9  21 N18G25    30.35R
SIDNEY         PTCLDY    47  12  24 N18G37    30.35R
$$

NEZ057>060-069>072-079>082-120000-
SOUTHWEST NEBRASKA

CITY           SKY/WX    TMP DP  RH WIND       PRES   REMARKS
NORTH PLATTE   CLOUDY    42  26  53 N14       30.31R
IMPERIAL       CLEAR     47  13  25 N17       30.31R
LEXINGTON      CLOUDY    43  27  53 N16       30.28R
MCCOOK         CLEAR     48  24  39 N17G29    30.28R
OGALLALA       MOCLDY    47  19  33 N13       30.32R
$$

NEZ005>010-023>029-035>040-094-120000-
NORTH CENTRAL NEBRASKA

CITY           SKY/WX    TMP DP  RH WIND       PRES   REMARKS
VALENTINE      CLOUDY    41  29  62 N16G29    30.31R
AINSWORTH      LGT RAIN  36  34  94 N15       30.29S WCI  26
BROKEN BOW     MOCLDY    40  28  62 N21G29    30.28R WCI  30
O`NEILL        CLOUDY    37  32  81 N17G24    30.26R WCI  28
ORD            CLOUDY    40  29  64 N23G31    30.26R WCI  30
THEDFORD       PTCLDY    40  29  64 N16G26    30.31R WCI  32
$$

NEZ041-046>049-061>064-073>077-083>087-120000-
SOUTH CENTRAL NEBRASKA

CITY           SKY/WX    TMP DP  RH WIND       PRES   REMARKS
GRAND ISLAND   CLOUDY    42  30  62 N23G38    30.25R
AURORA         CLOUDY    42  30  63 N30G38    30.23R
HASTINGS       CLOUDY    42  27  55 N20G33    30.25R
HEBRON         CLOUDY    45  30  55 N22G30    30.21R
HOLDREGE       MOCLDY    42  29  59 N18G24    30.27R
KEARNEY        CLOUDY    42  27  55 N30       30.26R
$$

NEZ011>018-030>034-042>045-120000-
NORTHEAST NEBRASKA

CITY           SKY/WX    TMP DP  RH WIND       PRES   REMARKS
NORFOLK        CLOUDY    39  31  72 N24G36    30.19R WCI  28
ALBION         CLOUDY    40  32  71 N26G35    30.23R WCI  29
BLAIR          CLOUDY    40  31  68 NW28G40   30.13R WCI  29
COLUMBUS       CLOUDY    41  31  67 NW24G35   30.21R
FREMONT        CLOUDY    40  30  66 NW22G31   30.19R WCI  30
TEKAMAH        CLOUDY    40  28  62 N20       30.16R WCI  30
WAYNE          PTCLDY    36  26  67 N22G32    30.19R WCI  25
$$

NEZ050>053-065>068-078-088>093-120000-
SOUTHEAST NEBRASKA

CITY           SKY/WX    TMP DP  RH WIND       PRES   REMARKS
LINCOLN        CLOUDY    43  33  68 N20G35    30.19R
OMAHA EPPLEY   CLOUDY    41  29  62 N22G33    30.13R
BEATRICE       LGT RAIN  44  32  62 NW26G33   30.17R
FALLS CITY     CLOUDY    46  32  58 NW28G43   30.09R
NEBRASKA CITY  CLOUDY    43  32  64 N32G39    30.12R
PLATTSMOUTH    CLOUDY    42  32  67 NW25G33   30.11R
$$

NEZ044-045-051>053-067-120000-
OMAHA AREA

CITY           SKY/WX    TMP DP  RH WIND       PRES   REMARKS
OMAHA EPPLEY   CLOUDY    41  29  62 N22G33    30.13R
BLAIR          CLOUDY    40  31  68 NW28G40   30.13R WCI  29
FREMONT        CLOUDY    40  30  66 NW22G31   30.19R WCI  30
MILLARD        CLOUDY    43  31  63 NW15G37   30.15R
OFFUTT AFB     CLOUDY    42  29  60 NW18G29   30.13R
PLATTSMOUTH    CLOUDY    42  32  67 NW25G33   30.11R
WAHOO          CLOUDY    41  30  65 N32G41    30.16R
$$




USA.gov is the U.S. government's official web portal to all federal, state and local government web resources and services.